Tracking 20228 objects as of 17-Jan-2020
HD Live streaming from Space Station
objects crossing your sky now

COSMOS 2287 (GLONASS)

Track COSMOS 2287 (GLONASS) now!
COSMOS 2287 (GLONASS) is classified as:


NORAD ID: 23203
Int'l Code: 1994-050A
Perigee: 19,112.4 km
Apogee: 19,161.6 km
Inclination: 65.8 °
Period: 675.7 minutes
Semi major axis: 25508 km
RCS: 3.2588 m2 (large)
Launch date: August 11, 1994
Source: Commonwealth of Independent States (former USSR) (CIS)
Launch site: TYURATAM MISSILE AND SPACE COMPLEX (TTMTR)
aabbcc
Your satellite tracking list
Your tracking list is empty




NASA's NSSDC Master Catalog

Two Line Element Set (TLE):
1 23203U 94050A   20013.57618939 +.00000020 +00000-0 +00000-0 0  9994
2 23203 065.8159 278.9553 0009647 042.8941 137.3845 02.13101990197845
Source of the keplerian elements: AFSPC